Regional Weather Roundup
Issued by NWS

Home | Current Version | Previous Version | Graphics & Text | Print | Product List | Glossary On
Versions: 1 2 3 4 5 6 7 8 9 10 11 12 13 14 15 16 17 18 19 20 21 22 23 24 25 26 27 28 29 30 31 32 33 34 35 36 37 38 39 40 41 42 43 44 45 46 47 48 49 50
000
ASUS43 KTOP 171659
RWRKS

WEATHER ROUNDUP FOR KANSAS
NATIONAL WEATHER SERVICE GOODLAND KS
1200 PM CDT THU APR 17 2014

NOTE:  "FAIR" INDICATES FEW OR NO CLOUDS BELOW 12,000 FEET WITH NO
SIGNIFICANT WEATHER AND/OR OBSTRUCTIONS TO VISIBILITY.

KSZ001>006-013>018-027>032-041>047-171800-
NORTHWEST KANSAS

CITY           SKY/WX    TMP DP  RH WIND       PRES   REMARKS
GOODLAND       CLOUDY    39  32  76 SE12      30.26F WCI  32
HAYS           CLOUDY    41  27  56 E7        30.32F
HILL CITY      MOSUNNY   42  26  53 VRB3      30.32F
RUSSELL        CLOUDY    42  27  55 N9        30.31S
$$

KSZ061>065-074>080-084>089-171800-
SOUTHWEST KANSAS

CITY           SKY/WX    TMP DP  RH WIND       PRES   REMARKS
DODGE CITY     LGT RAIN  35  32  88 NE10      30.31S FOG     WCI  27
ELKHART          N/A     45  35  68 E8          N/A
GARDEN CITY    MIX PCPN  34  31  88 NE7       30.30R FOG
GREAT BEND     CLOUDY    39  27  60 NE8       30.32S
LIBERAL        CLOUDY    41  36  81 E7        30.28F
$$

KSZ066>073-081>083-090>101-171800-
SOUTHEAST KANSAS

CITY           SKY/WX    TMP DP  RH WIND       PRES   REMARKS
CHANUTE        CLOUDY    47  34  60 N13G22    30.29S
COFFEYVILLE    CLOUDY    52  36  54 N8        30.28R
HUTCHINSON     CLOUDY    38  31  76 NE6       30.32R
NEWTON         CLOUDY    36  27  69 N8        30.34R
PARSONS        CLOUDY    50  35  56 MISG      30.28S
WICHITA INTL   LGT RAIN  40  31  70 N9        30.32R
WICHITA JABRA  CLOUDY    38  30  73 NE10      30.31R WCI  31
WICHITA MCCONL LGT RAIN  41  32  70 NE12      30.31R
WINFIELD       CLOUDY    47  33  58 NE10      30.30R
$$

KSZ007>012-019>026-033>040-048>060-102>105-171800-
NORTHEAST KANSAS

CITY           SKY/WX    TMP DP  RH WIND       PRES   REMARKS
CONCORDIA      PTSUNNY   43  27  53 VRB3      30.32F
EMPORIA        CLOUDY    40  29  64 N10       30.31R WCI  33
LAWRENCE       CLOUDY    44  31  60 N7        30.33R
MANHATTAN      CLOUDY    43  29  57 VRB6      30.33S
OLATHE IND     CLOUDY    42  31  64 N8        30.32S
OLATHE EXE     CLOUDY    42  31  64 N7        30.30F
SALINA         CLOUDY    43  27  53 N8        30.34R
TOPEKA BILLARD CLOUDY    43  30  60 N10       30.33S
TOPEKA FORBES  CLOUDY    42  30  62 N10       30.32S
$$



USA.gov is the U.S. government's official web portal to all federal, state and local government web resources and services.